Regional Weather Roundup
Issued by NWS

Home | Current Version | Previous Version | Text Only | Print | Product List | Glossary Off
Versions: 1 2 3 4 5 6 7 8 9 10 11 12 13 14 15 16 17 18 19 20 21 22 23 24 25 26 27 28 29 30 31 32 33 34 35 36 37 38 39 40 41 42 43 44 45 46

000
ASUS45 KTFX 281210
RWRMT
MONTANA REGIONAL WEATHER ROUNDUP
NATIONAL WEATHER SERVICE GREAT FALLS MT
600 AM MDT THU MAY 28 2015

NOTE: "FAIR" INDICATES FEW OR NO CLOUDS BELOW 12000 FEET WITH NO
SIGNIFICANT WEATHER AND/OR OBSTRUCTIONS TO VISIBILITY.

MTZ001>007-043-281300-
WEST OF THE DIVIDE

CITY           SKY/WX    TMP DP  RH WIND       PRES   REMARKS
KALISPELL      MOSUNNY   43  42  97 NW3       30.06R FOG
MISSOULA       CLOUDY    49  45  86 W3        30.09R
BUTTE          CLOUDY    43  41  93 CALM      30.11R
MULLAN PASS    CLOUDY    44  42  93 NW5       30.13R
DEER LODGE       N/A     48  46  93 CALM      30.13R
EUREKA           N/A     50  48  93 CALM      30.09R VSB 1/2
HAMILTON         N/A     50  46  87 SW5       30.09R
LIBBY            N/A     48  48 100 CALM      30.09R
PLAINS           N/A     48  45  90 CALM      30.08R VSB 0
RONAN            N/A     51  49  93 CALM      30.10R
THOMPSON FALLS   N/A     44  43  97 CALM      30.12R VSB 0
$$

MTZ008-052>055-281300-
SOUTHWEST MONTANA

CITY           SKY/WX    TMP DP  RH WIND       PRES   REMARKS
BOZEMAN        CLOUDY    50  46  86 CALM      30.07R
DILLON         LGT RAIN  47  44  90 SE3       30.09R
W YELLOWSTONE  CLOUDY    39  39 100 SW5       30.12S
THREE FORKS      N/A     50  30  46 CALM      30.06R
$$

MTZ009-010-012-014-046-048-049-054-281300-
EAST SLOPES AND CENTRAL MONTANA

CITY           SKY/WX    TMP DP  RH WIND       PRES   REMARKS
CUT BANK       MOCLDY    50  45  83 NW14      30.02R
GREAT FALLS    MOCLDY    50  47  89 SW7       30.01R
MALMSTROM AFB  CLOUDY    53  48  83 W6        30.02R
HELENA         CLOUDY    53  46  77 CALM      30.05R
CONRAD           N/A     52  50  93 W7        30.03R
$$

MTZ011-013-016-021-045-047-050-051-281300-
NORTH CENTRAL MONTANA

CITY           SKY/WX    TMP DP  RH WIND       PRES   REMARKS
HAVRE          PTCLDY    47  46  97 W7        29.96S
LEWISTOWN      PTCLDY    49  44  83 W6        30.02R
N BAR RANCH    CLOUDY    50  45  81 W6        30.03S
CHINOOK          N/A     52  50  93 W6        29.96R
FORT BENTON      N/A     52  48  87 SW8       30.01R
$$

MTZ017>020-022>027-061-062-281300-
NORTHEAST MONTANA

CITY           SKY/WX    TMP DP  RH WIND       PRES   REMARKS
GLASGOW        PTCLDY    49  48  97 NW5       29.90R
JORDAN           N/A     49  47  93 W9        29.92R
SIDNEY         CLOUDY    52  48  87 CALM      29.90R VSB 1/4
WOLF POINT     MOCLDY    50  48  93 MISG      29.90R FOG
MALTA            N/A     49  44  83 CALM      29.91R
PLENTYWOOD       N/A     54  54 100 CALM      29.90R
POPLAR           N/A     48  48 100 CALM      29.90R
SCOBEY           N/A     49  45  86 CALM      29.90R
$$

MTZ028>42-056>058-281300-
SOUTHCENTRAL AND SOUTHEAST MONTANA

CITY           SKY/WX    TMP DP  RH WIND       PRES   REMARKS
BAKER          PTCLDY    51  49  92 CALM      29.93S
BILLINGS       MOCLDY    51  45  79 SW10      30.00R
LIVINGSTON     CLOUDY    51  44  77 W7        30.04R
MILES CITY     PTCLDY    51  51 100 W7        29.93R FOG
BIG TIMBER       N/A     48  45  87 NW7       30.04R
EKALAKA          N/A     51  48  89 SE2       29.93F
LAUREL           N/A     46  43  90 CALM      29.99R
ROUNDUP          N/A     49  44  83 S2        29.90S
$$

REGIONAL REPORTS...DAKOTAS

CITY           SKY/WX    TMP DP  RH WIND       PRES   REMARKS
WILLISTON      CLEAR     54  53  97 S3        29.88S
MINOT          CLOUDY    58  56  93 SE8       29.86F FOG
DICKINSON      CLOUDY    52  51  97 CALM      29.89R
BEACH          FAIR      50  50 100 W6        29.93R
CROSBY         CLOUDY    55  55 100 CALM      29.89R FOG
WATFORD CITY   PTSUNNY   50  50 100 SW6       29.88R FOG
BISMARCK       CLOUDY    59  56  89 CALM      29.89S
GRAND FORKS    LGT RAIN  56  55  97 NE7       29.94F
FARGO          RAIN      61  58  90 MISG      29.96R FOG
BUFFALO SD       N/A     56  53  90 NW5       29.86S
RAPID CITY     PTCLDY    53  51  93 CALM      29.92R
$$

REGIONAL REPORTS...WYOMING/IDAHO/WASHINGTON

CITY           SKY/WX    TMP DP  RH WIND       PRES   REMARKS
GILLETTE       CLOUDY    52  49  89 CALM      29.99S
SHERIDAN       CLOUDY    49  46  90 S3        30.00R
BUFFALO WY     CLOUDY    51  44  77 W8        30.02R
CODY           CLOUDY    46  45  93 CALM      30.03R
YELLOWSTONE LA   N/A     35  33  92 CALM      30.16S
IDAHO FALLS    CLOUDY    49  47  93 CALM      30.10R
SALMON         CLOUDY    48  46  93 CALM      30.10R
BOISE          CLEAR     50  43  77 SE3       30.05R
SPOKANE        PTCLDY    54  48  80 SE6       30.04R
$$

REGIONAL REPORTS...ALBERTA

CITY           SKY/WX    TMP DP  RH WIND       PRES   REMARKS
EDMONTON       CLOUDY    45  37  76 N18       30.19R
CALGARY        CLOUDY    54  46  76 N22       30.12R
LETHBRIDGE     MOCLDY    54  48  82 NW14      30.04R
MEDICINE HAT   CLEAR     48  46  93 SW2       29.98R
$$

REGIONAL REPORTS...SASKATCHEWAN

CITY           SKY/WX    TMP DP  RH WIND       PRES   REMARKS
SWIFT CURRENT  MOCLDY    46  45  93 W10       29.94R
REGINA         CLOUDY    57  54  88 SE8       29.93R
SASKATOON      MOCLDY    57  46  67 NW8       29.93S
$$



USA.gov is the U.S. government's official web portal to all federal, state and local government web resources and services.